Regional Weather Roundup
Issued by NWS Upton, NY

Home | Current Version | Previous Version | Text Only | Print | Product List | Glossary On
Versions: 1 2 3 4 5 6 7 8 9 10 11 12 13 14 15 16 17 18 19 20 21 22 23 24 25 26 27 28 29 30 31 32 33 34 35 36 37 38 39 40 41 42 43 44 45 46 47 48 49 50
000
ASUS41 KOKX 270105
RWROKX

REGIONAL WEATHER ROUNDUP
NATIONAL WEATHER SERVICE NEW YORK NY
800 PM EST FRI DEC 26 2014

NOTE: "FAIR" INDICATES FEW OR NO CLOUDS BELOW 12,000 FEET WITH NO
SIGNIFICANT WEATHER AND/OR OBSTRUCTIONS TO VISIBILITY.

NYZ071-072-176-178-NJZ106-104-270200-
NEW YORK CITY METRO AREA


CITY           SKY/WX    TMP DP  RH WIND       PRES   REMARKS
CENTRAL PARK   CLEAR     46  29  51 VRB5      30.25R
LAGUARDIA APRT CLEAR     46  29  51 W9        30.23R
KENNEDY INTL   PTCLDY    41  32  70 SW10      30.24R
NEWARK/LIBERTY PTCLDY    43  30  60 SW8       30.23S
BRNX BOT. GARD   N/A    N/A N/A N/A SW5       30.25R
TETERBORO      CLEAR     42  29  59 S3        30.22S
$$

NYZ177-179-078>081-270200-
LONG ISLAND NEW YORK

CITY           SKY/WX    TMP DP  RH WIND       PRES   REMARKS
FARMINGDALE    CLEAR     42  30  62 SW7       30.22R
ISLIP          PTCLDY    39  30  70 SW3       30.20R
SHIRLEY        CLEAR     37  30  75 W6        30.22S WCI  32
WESTHAMPTON    CLEAR     28  23  81 NW3       30.23S
MONTAUK POINT    N/A     45  33  63 SW3       30.20F
$$

NYZ052-065-067-270200-
HUDSON VALLEY

CITY           SKY/WX    TMP DP  RH WIND       PRES   REMARKS
WHITE PLAINS   CLEAR     42  28  57 W5        30.20R
NEWBURGH       NOT AVBL
MONTGOMERY     CLEAR     30  26  85 CALM      30.20R
POUGHKEEPSIE   CLEAR     34  27  75 CALM      30.20R
ALBANY         PTCLDY    32  27  81 CALM      30.19R
$$

NJZ001-105-106-008-010-013-015-019>022-104-270200-
NEW JERSEY

CITY           SKY/WX    TMP DP  RH WIND       PRES   REMARKS
NEWARK/LIBERTY PTCLDY    43  30  60 SW8       30.23S
TETERBORO      CLEAR     42  29  59 S3        30.22S
CALDWELL       CLEAR     40  29  64 W5        30.23R
MORRISTOWN     CLEAR     36  30  80 CALM      30.23S
SOMERVILLE     CLEAR     32  28  85 CALM      30.23R
SUSSEX         CLEAR     36  28  73 SW5       30.21R WCI  32
ANDOVER        NOT AVBL
TRENTON        CLEAR     41  30  65 W6        30.24S
MILLVILLE      CLEAR     30  29  96 CALM      30.28R
ATLANTIC CITY  CLEAR     34  28  79 CALM      30.27R
WRIGHTSTOWN    CLEAR     37  30  74 W6        30.24R WCI  33
TOMS RIVER     CLEAR     30  28  93 CALM      30.25F
BELMAR         CLEAR     39  27  60 W7        30.24S WCI  34
$$

PAZ047>061-062-071-270200-
EASTERN PENNSYLVANIA

CITY           SKY/WX    TMP DP  RH WIND       PRES   REMARKS
PHILADELPHIA   MOCLDY    42  31  64 SW7       30.28R
ALLENTOWN      CLEAR     36  28  73 SW3       30.24S
SCRANTON       CLEAR     34  27  75 S7        30.20S WCI  28
$$

CTZ002-004>006-009-010-012-RIZ004-006-007-MAZ004-011-015-270200-
SOUTHERN NEW ENGLAND
 IN CT

CITY           SKY/WX    TMP DP  RH WIND       PRES   REMARKS
BRADLEY INTL   PTCLDY    36  27  69 SW5       30.18R WCI  32
HARTFORD       CLEAR     35  30  82 CALM      30.20R
DANBURY        CLEAR     30  25  81 SW5       30.21R WCI  25
WTRBRY/OXFORD  CLEAR     36  25  64 SW6       30.19R WCI  31
BRIDGEPORT     CLEAR     43  37  79 SW5       30.21R
MERIDEN        CLEAR     30  28  92 CALM      30.20R
NEW HAVEN      CLEAR     44  36  73 CALM      30.20R
CHESTER        FAIR      39  32  75 W5        30.20R
GROTON         CLEAR     40  32  73 W3        30.19S
WILLIMANTIC    CLEAR     32  27  81 CALM      30.19S

 IN RI

CITY           SKY/WX    TMP DP  RH WIND       PRES   REMARKS
PROVIDENCE     CLEAR     37  29  72 CALM      30.18S
BLOCK ISLAND   CLEAR     45  34  65 W9        30.19S
WESTERLY       CLEAR     41  32  70 W6        30.19S

 IN MA

CITY           SKY/WX    TMP DP  RH WIND       PRES   REMARKS
BOSTON         MOCLDY    44  29  55 W12G20    30.15F
WORCESTER      PTCLDY    35  26  69 W8        30.14S WCI  29
WESTFIELD      CLEAR     30  26  85 CALM      30.18R
PROVINCETOWN   CLEAR     43  36  75 W12       30.16R
NANTUCKET      CLEAR     43  38  82 W8        30.17R
$$

ANZ330-335-338-340-345-350-353-355-270200-
COASTAL MARINE OBSERVATIONS


STATION/POSITION TIME  SKY/WX   TEMP    WIND        PRES    VSBY  WAVE
                                AIR SEA DIR/SP/G                  HT/PER
                 (UTC)          (F)     (DEG/KT/KT) (MB)    (MI)  (FT/S)
NY HARB ENTRANCE 0100            46 45  250/ 10/ 10 1024.4          2/11
4S FIRE IS       0100               47                N/A           2/12
20S FIRE ISLAND  0000            47 49              1024.1          2/ 9
23SW MTP         0100                                 N/A           3/ 4
HUDSON CANYON    0100            48 55  280/ 12/ 16 1023.9          3/ 5
EXECUTION ROCKS  0100            45 42  250/ 10/ 14   N/A
WESTERN LI SOUND 0100            44     220/  8/ 10   N/A           0
CENTRAL LI SOUND 0000            45 44  230/ 10/ 12   N/A           1/ 2
EASTERN LI SOUND NOT AVBL
ROBBINS REEF     0100            45                 1022.4
$$


>>>>>>>>>>>>>>>>>>>>>>>>>>>> KEY <<<<<<<<<<<<<<<<<<<<<<<<<<<
>                                                          <
>     SKY/WX - SKY CONDITION/PRESENT WEATHER               <
>     TMP    - TEMPERATURE IN FAHRENHEIT                   <
>     DP     - DEWPOINT IN FAHRENHEIT                      <
>     RH     - RELATIVE HUMIDITY IN PERCENT                <
>     WIND   - DIRECTION AND SPEED IN MPH                  <
>     PRES   - MEAN SEA LEVEL PRESSURE IN INCHES OF HG     <
>     WCI    - WIND CHILL INDEX                            <
>     VSB    - VISIBILITY IN MILES                         <
>     HX     - HEAT INDEX                                  <
>     TC     - TEMPERATURE IN CELSIUS                      <
>     VRB    - VARIABLE WIND DIRECTION                     <
>                                                          <
>>>>>>>>>>>>>>>>>>>>>>>>>>>> KEY <<<<<<<<<<<<<<<<<<<<<<<<<<<




USA.gov is the U.S. government's official web portal to all federal, state and local government web resources and services.